Latest Weather Observations for Esperance Airport

IDW60801

Issued at 3:32 pm WST Tuesday 26 May 2015 (issued every 30 minutes, with the page automatically refreshed every 10 minutes)

About weather observations | Map of weather stations | Latest weather observations for WA | Other Formats
Station Details ID: 009542 Name: ESPERANCE AERO Lat: -33.68 Lon: 121.83 Height: 142.0 m
Data from the previous 72 hours. | See also: Recent months at Esperance Airport
Date/Time
WST
Temp
°C
App
Temp
°C
Dew
Point
Rel
Hum
%
Delta-T
°C
Wind Press
QNH
hPa
Press
MSL
hPa
Rain
since 9 am
mm
Dir
 
Spd
km/h
Gust
km/h
Spd
kts
Gust
kts
26/03:30pm 15.8 12.8 12.7 82 1.7 SW 20 26 11 14 1021.4 1021.3 0.0
26/03:00pm 16.6 13.4 13.1 80 2.0 SW 22 32 12 17 1021.2 1021.1 0.0
26/02:30pm 16.7 11.4 12.5 76 2.3 SW 32 41 17 22 1021.0 1020.9 0.0
26/02:00pm 17.5 12.0 10.6 64 3.7 WSW 30 43 16 23 1020.8 1020.7 0.0
26/01:30pm 18.1 12.4 11.7 66 3.5 WSW 33 44 18 24 1020.7 1020.6 0.0
26/01:24pm 18.2 13.0 11.7 66 3.6 WSW 30 39 16 21 1020.6 1020.4 0.0
26/01:00pm 18.2 11.4 10.6 61 4.1 W 37 48 20 26 1020.7 1020.6 0.0
26/12:30pm 18.6 12.9 11.2 62 4.1 W 32 41 17 22 1020.7 1020.6 0.0
26/12:00pm 18.2 12.5 11.0 63 3.9 WSW 32 41 17 22 1020.9 1020.8 0.0
26/11:30am 18.1 12.4 11.0 63 3.9 WSW 32 43 17 23 1021.0 1020.9 0.0
26/11:00am 17.8 13.2 11.1 65 3.6 W 26 33 14 18 1021.3 1021.2 0.0
26/10:30am 16.9 12.3 11.0 68 3.2 W 26 33 14 18 1021.6 1021.5 0.0
26/10:00am 16.5 11.7 11.6 73 2.7 W 28 37 15 20 1021.7 1021.6 0.0
26/09:30am 15.6 12.6 12.0 79 2.0 W 19 24 10 13 1021.7 1021.6 0.0
26/09:00am 14.0 10.4 11.7 86 1.2 W 22 28 12 15 1021.5 1021.4 0.4
26/08:30am 12.7 9.3 11.3 91 0.7 WNW 20 24 11 13 1021.4 1021.3 0.4
26/08:00am 11.9 8.9 10.8 93 0.6 WNW 17 22 9 12 1021.4 1021.3 0.4
26/07:30am 11.2 8.7 11.0 99 0.1 NW 15 20 8 11 1021.3 1021.2 0.4
26/07:00am 10.8 7.8 10.6 99 0.1 NW 17 20 9 11 1021.0 1020.9 0.4
26/06:30am 10.2 7.8 10.0 99 0.1 NW 13 17 7 9 1020.6 1020.4 0.4
26/06:00am 10.3 8.3 10.1 99 0.1 NNW 11 13 6 7 1020.0 1019.8 0.0
26/05:30am 10.8 8.9 10.6 99 0.1 NNW 11 13 6 7 1019.8 1019.6 0.0
26/05:00am 10.9 9.1 10.7 99 0.1 NW 11 13 6 7 1019.8 1019.6 0.0
26/04:30am 10.9 9.1 10.7 99 0.1 NW 11 15 6 8 1019.8 1019.6 0.0
26/04:00am 11.0 8.8 10.8 99 0.1 NW 13 15 7 8 1019.8 1019.6 0.0
26/03:30am 11.3 9.2 11.1 99 0.1 NNW 13 15 7 8 1019.8 1019.6 0.0
26/03:00am 11.7 9.8 11.7 100 0.0 NNW 13 17 7 9 1019.9 1019.7 0.0
26/02:30am 12.0 10.5 12.0 100 0.0 N 11 13 6 7 1020.0 1019.8 0.0
26/02:00am 11.2 9.5 11.2 100 0.0 N 11 13 6 7 1020.2 1020.0 0.0
26/01:30am 10.9 9.1 10.9 100 0.0 N 11 13 6 7 1020.3 1020.1 0.0
26/01:14am 10.8 9.0 10.8 100 0.0 N 11 13 6 7 1020.3 1020.1 0.0
26/01:00am 10.6 9.1 10.6 100 0.0 N 9 13 5 7 1020.4 1020.2 0.0
26/12:41am 11.1 9.8 11.1 100 0.0 NNW 9 11 5 6 1020.4 1020.2 0.0
26/12:30am 10.9 9.4 10.7 99 0.1 NW 9 11 5 6 1020.4 1020.2 0.0
26/12:15am 10.7 9.2 10.5 99 0.1 NNW 9 9 5 5 1020.5 1020.3 0.0
26/12:00am 10.6 9.4 10.4 99 0.1 NW 7 9 4 5 1020.7 1020.6 0.0
 
Date/Time
WST
Temp
°C
App
Temp
°C
Dew
Point
Rel
Hum
%
Delta-T
°C
Wind Press
QNH
hPa
Press
MSL
hPa
Rain
since 9 am
mm
Dir
 
Spd
km/h
Gust
km/h
Spd
kts
Gust
kts
25/11:42pm 10.8 9.7 10.6 99 0.1 NNW 7 9 4 5 1020.6 1020.4 0.0
25/11:34pm 11.0 9.9 10.8 99 0.1 N 7 9 4 5 1020.6 1020.4 0.0
25/11:30pm 10.9 9.8 10.7 99 0.1 N 7 9 4 5 1020.7 1020.6 0.0
25/11:18pm 11.1 10.6 10.9 99 0.1 N 4 9 2 5 1020.8 1020.7 0.0
25/11:00pm 11.2 10.4 11.0 99 0.1 N 6 7 3 4 1020.9 1020.8 0.0
25/10:39pm 11.5 10.8 11.3 99 0.1 N 6 7 3 4 1020.9 1020.8 0.0
25/10:34pm 11.3 11.3 11.1 99 0.1 N 2 7 1 4 1021.0 1020.9 0.0
25/10:30pm 11.3 11.7 11.1 99 0.1 CALM 0 0 0 0 1021.0 1020.9 0.0
25/10:00pm 11.1 11.4 10.9 99 0.1 CALM 0 0 0 0 1021.2 1021.1 0.0
25/09:30pm 12.1 11.4 11.9 99 0.1 WSW 7 9 4 5 1021.3 1021.2 0.0
25/09:27pm 12.1 11.4 11.9 99 0.1 WSW 7 11 4 6 1021.3 1021.2 0.0
25/09:00pm 12.3 11.6 12.1 99 0.1 W 7 13 4 7 1021.3 1021.2 0.0
25/08:56pm 12.6 13.0 12.4 99 0.1 N 2 11 1 6 1021.3 1021.2 0.0
25/08:30pm 13.5 13.8 13.3 99 0.1 E 4 6 2 3 1021.0 1020.9 0.0
25/08:00pm 14.1 13.6 13.9 99 0.1 ENE 9 13 5 7 1020.9 1020.8 0.0
25/07:30pm 14.4 13.3 14.2 99 0.1 E 13 17 7 9 1020.8 1020.7 0.0
25/07:00pm 13.5 12.1 13.3 99 0.1 ESE 13 13 7 7 1021.0 1020.9 0.0
25/06:30pm 14.1 13.3 13.9 99 0.1 SSE 11 13 6 7 1021.0 1020.9 0.0
25/06:00pm 14.4 13.6 14.1 98 0.2 SSE 11 15 6 8 1021.0 1020.9 0.0
25/05:30pm 14.7 13.5 14.1 96 0.3 SSE 13 15 7 8 1020.8 1020.7 0.0
25/05:00pm 15.3 13.7 14.0 92 0.7 SE 15 17 8 9 1020.4 1020.2 0.0
25/04:30pm 17.1 15.9 14.0 82 1.8 SE 13 15 7 8 1020.3 1020.1 0.0
25/04:00pm 20.3 20.5 12.0 59 4.6 N 2 7 1 4 1020.3 1020.1 0.0
25/03:30pm 21.0 20.6 12.4 58 4.9 N 6 9 3 5 1020.3 1020.1 0.0
25/03:00pm 20.9 19.6 12.6 59 4.7 NW 11 15 6 8 1020.3 1020.1 0.0
25/02:30pm 20.7 19.5 12.7 60 4.6 WNW 11 17 6 9 1020.4 1020.2 0.0
25/02:00pm 21.0 21.2 12.9 60 4.6 NNW 4 11 2 6 1020.4 1020.2 0.0
25/01:30pm 20.6 20.1 12.6 60 4.5 WSW 7 17 4 9 1020.6 1020.4 0.0
25/01:00pm 20.2 19.2 12.4 61 4.4 NNW 9 13 5 7 1020.8 1020.7 0.0
25/12:30pm 20.1 19.4 13.3 65 3.9 N 9 13 5 7 1021.0 1020.9 0.0
25/12:00pm 19.7 18.5 14.1 70 3.2 N 13 17 7 9 1021.4 1021.3 0.0
25/11:30am 18.7 17.2 13.1 70 3.2 NNW 13 20 7 11 1021.8 1021.7 0.0
25/11:00am 18.1 16.7 14.4 79 2.1 NNW 15 20 8 11 1022.4 1022.3 0.0
25/10:30am 16.8 14.5 14.1 84 1.5 NNE 19 24 10 13 1022.8 1022.7 0.0
25/10:00am 15.8 13.4 13.8 88 1.1 N 19 24 10 13 1022.9 1022.8 0.0
25/09:30am 14.6 12.8 14.4 99 0.1 N 17 22 9 12 1023.1 1023.0 0.0
25/09:00am 13.3 11.9 13.3 100 0.0 N 13 17 7 9 1023.4 1023.3 2.2
25/08:30am 12.6 11.7 12.6 100 0.0 NNW 9 11 5 6 1023.5 1023.4 2.2
25/08:00am 12.2 9.7 12.2 100 0.0 NNE 17 20 9 11 1023.5 1023.4 2.2
25/07:52am 12.1 9.5 12.1 100 0.0 NNE 17 22 9 12 1023.4 1023.3 2.2
25/07:30am 11.2 7.8 11.2 100 0.0 N 20 26 11 14 1023.3 1023.2 2.2
25/07:00am 10.7 8.0 10.5 99 0.1 NNE 15 20 8 11 1023.2 1023.1 2.2
25/06:30am 10.9 7.9 10.7 99 0.1 NNE 17 22 9 12 1023.1 1023.0 2.2
25/06:00am 10.5 7.0 10.3 99 0.1 N 19 24 10 13 1023.0 1022.9 2.2
25/05:43am 10.1 6.9 9.9 99 0.1 NNE 17 24 9 13 1022.8 1022.7 2.0
25/05:40am 10.0 6.8 9.9 99 0.1 NNE 17 22 9 12 1022.8 1022.7 2.0
25/05:30am 10.0 7.6 9.9 99 0.1 NNE 13 17 7 9 1022.7 1022.6 2.0
25/05:00am 10.6 7.9 10.4 99 0.1 NNE 15 20 8 11 1022.7 1022.6 2.0
25/04:30am 11.2 8.7 11.0 99 0.1 NNE 15 19 8 10 1022.7 1022.6 2.0
25/04:00am 10.9 8.7 10.7 99 0.1 NNE 13 15 7 8 1022.6 1022.5 2.0
25/03:30am 10.8 8.5 10.6 99 0.1 NNE 13 17 7 9 1022.5 1022.4 2.0
25/03:00am 10.9 8.7 10.7 99 0.1 NNE 13 17 7 9 1022.5 1022.4 2.0
25/02:30am 10.9 8.7 10.7 99 0.1 NNE 13 17 7 9 1022.7 1022.6 2.0
25/02:00am 10.9 8.6 10.6 98 0.2 NNE 13 17 7 9 1022.7 1022.6 2.0
25/01:30am 11.4 8.9 10.9 97 0.3 NNE 15 19 8 10 1022.7 1022.6 2.0
25/01:00am 11.7 9.6 11.2 97 0.3 NNE 13 19 7 10 1022.7 1022.6 2.0
25/12:30am 11.8 10.1 11.2 96 0.3 NNE 11 15 6 8 1022.8 1022.7 2.0
25/12:00am 12.4 10.9 11.8 96 0.3 NE 11 17 6 9 1022.7 1022.6 2.0
 
Date/Time
WST
Temp
°C
App
Temp
°C
Dew
Point
Rel
Hum
%
Delta-T
°C
Wind Press
QNH
hPa
Press
MSL
hPa
Rain
since 9 am
mm
Dir
 
Spd
km/h
Gust
km/h
Spd
kts
Gust
kts
24/11:30pm 12.4 10.5 11.8 96 0.3 NE 13 19 7 10 1022.9 1022.8 2.0
24/11:00pm 12.4 10.9 11.8 96 0.3 NE 11 17 6 9 1022.9 1022.8 2.0
24/10:30pm 12.9 11.2 12.3 96 0.3 NE 13 19 7 10 1023.2 1023.1 2.0
24/10:00pm 12.9 11.5 12.1 95 0.4 NE 11 19 6 10 1023.3 1023.2 1.8
24/09:30pm 12.8 11.7 12.0 95 0.4 NE 9 13 5 7 1023.5 1023.4 1.8
24/09:00pm 13.0 12.0 12.2 95 0.4 ENE 9 13 5 7 1023.4 1023.3 1.8
24/08:30pm 13.2 12.3 12.7 97 0.3 E 9 11 5 6 1023.3 1023.2 1.8
24/08:00pm 12.9 12.0 12.7 99 0.1 E 9 11 5 6 1023.2 1023.1 1.8
24/07:30pm 12.6 11.6 12.4 99 0.1 ESE 9 11 5 6 1023.1 1023.0 1.8
24/07:00pm 12.3 11.8 12.1 99 0.1 SE 6 9 3 5 1023.0 1022.9 1.8
24/06:30pm 12.1 11.3 11.8 98 0.2 SE 7 9 4 5 1022.7 1022.6 1.8
24/06:00pm 12.8 12.3 12.5 98 0.2 SE 7 7 4 4 1022.5 1022.4 1.8
24/05:30pm 13.2 12.7 12.7 97 0.3 SE 7 9 4 5 1022.3 1022.2 1.8
24/05:00pm 13.8 13.5 13.2 96 0.3 S 7 11 4 6 1022.1 1022.0 1.8
24/04:30pm 14.0 13.6 13.1 94 0.5 S 7 11 4 6 1022.1 1022.0 1.8
24/04:00pm 14.4 14.3 13.4 94 0.6 S 6 7 3 4 1022.0 1021.9 1.8
24/03:51pm 14.4 14.1 13.4 94 0.6 S 7 9 4 5 1021.9 1021.8 1.8
24/03:30pm 14.4 14.2 13.6 95 0.4 S 7 9 4 5 1021.8 1021.7 1.8
24/03:17pm 14.3 13.3 13.3 94 0.6 SSE 11 17 6 9 1021.9 1021.8 1.6
24/03:07pm 14.7 13.4 13.7 94 0.6 SSE 13 15 7 8 1021.8 1021.7 1.4
24/03:00pm 14.8 13.9 13.7 93 0.6 SSE 11 15 6 8 1021.8 1021.7 1.0
24/02:58pm 14.8 13.9 13.7 93 0.6 SSE 11 15 6 8 1021.9 1021.8 1.0
24/02:48pm 15.1 14.9 13.5 90 0.9 S 7 13 4 7 1021.9 1021.8 0.8
24/02:46pm 15.2 15.1 13.4 89 1.0 SSE 6 11 3 6 1021.9 1021.8 0.8
24/02:30pm 16.1 15.4 13.2 83 1.6 SE 9 13 5 7 1021.8 1021.7 0.4
24/02:00pm 16.5 16.4 13.2 81 1.9 WSW 6 11 3 6 1021.6 1021.5 0.4
24/01:30pm 16.2 17.7 14.6 90 0.9 CALM 0 6 0 3 1021.7 1021.6 0.4
24/01:05pm 15.9 16.2 14.9 94 0.6 NNW 7 9 4 5 1021.8 1021.7 0.4
24/01:00pm 15.8 16.2 14.7 93 0.6 NW 6 7 3 4 1021.8 1021.7 0.4
24/12:46pm 15.3 15.5 14.3 94 0.6 NNW 6 7 3 4 1021.9 1021.8 0.4
24/12:30pm 15.5 16.9 14.4 93 0.6 CALM 0 0 0 0 1022.0 1021.9 0.4
24/12:04pm 15.4 16.8 14.3 93 0.6 CALM 0 0 0 0 1022.2 1022.1 0.2
24/12:00pm 15.4 16.8 14.3 93 0.6 CALM 0 0 0 0 1022.2 1022.1 0.2
24/11:54am 15.4 16.4 14.3 93 0.6 WNW 2 6 1 3 1022.3 1022.2 0.0
24/11:53am 15.5 16.5 14.4 93 0.6 WNW 2 6 1 3 1022.3 1022.2 0.0
24/11:40am 15.4 15.6 14.3 93 0.6 WSW 6 9 3 5 1022.4 1022.3 0.0
24/11:30am 15.4 15.4 14.3 93 0.6 WSW 7 11 4 6 1022.5 1022.4 0.0
24/11:28am 15.4 15.4 14.3 93 0.6 WSW 7 11 4 6 1022.5 1022.4 0.0
24/11:00am 15.4 14.3 14.4 94 0.6 WSW 13 15 7 8 1022.6 1022.5 0.0
24/10:49am 15.3 14.6 14.3 94 0.6 WSW 11 17 6 9 1022.8 1022.7 0.0
24/10:43am 15.8 15.4 15.2 96 0.3 WSW 11 13 6 7 1022.8 1022.7 0.0
24/10:30am 15.4 15.0 15.1 98 0.2 WSW 11 13 6 7 1022.7 1022.6 0.0
24/10:15am 15.0 14.5 14.8 99 0.1 WSW 11 15 6 8 1022.7 1022.6 0.0
24/10:00am 14.9 14.3 14.7 99 0.1 WSW 11 15 6 8 1022.8 1022.7 0.0
24/09:30am 14.1 14.2 13.9 99 0.1 NW 6 9 3 5 1022.7 1022.6 0.0
24/09:00am 13.3 12.9 13.1 99 0.1 NNW 7 9 4 5 1022.6 1022.5 2.2
24/08:30am 12.6 11.6 12.4 99 0.1 NNW 9 11 5 6 1022.5 1022.4 2.2
24/08:10am 12.4 11.4 12.2 99 0.1 NNW 9 11 5 6 1022.4 1022.3 2.2
24/08:09am 12.4 11.4 12.2 99 0.1 NNW 9 11 5 6 1022.4 1022.3 2.2
24/08:00am 12.2 11.1 12.0 99 0.1 NNW 9 13 5 7 1022.3 1022.2 2.2
24/07:30am 11.8 10.6 11.6 99 0.1 NW 9 11 5 6 1022.0 1021.9 2.2
24/07:05am 11.6 9.6 11.4 99 0.1 WNW 13 17 7 9 1021.8 1021.7 1.6
24/07:00am 11.7 9.7 11.5 99 0.1 WNW 13 17 7 9 1021.9 1021.8 1.6
24/06:30am 13.0 13.1 12.8 99 0.1 S 4 11 2 6 1021.3 1021.2 1.6
24/06:00am 13.2 14.1 13.0 99 0.1 CALM 0 0 0 0 1020.9 1020.8 1.6
24/05:30am 13.2 12.4 13.0 99 0.1 SW 9 11 5 6 1020.7 1020.6 1.6
24/05:29am 13.1 12.3 12.9 99 0.1 SW 9 11 5 6 1020.7 1020.6 1.6
24/05:00am 13.3 10.7 13.1 99 0.1 SSW 19 22 10 12 1020.6 1020.4 1.2
24/04:42am 12.5 10.7 12.2 98 0.2 SW 13 20 7 11 1020.6 1020.4 0.0
24/04:30am 11.0 8.7 10.4 96 0.3 W 13 17 7 9 1020.5 1020.3 0.0
24/04:18am 10.2 7.9 9.1 93 0.5 WNW 11 13 6 7 1020.4 1020.2 0.0
24/04:17am 10.1 8.2 9.0 93 0.5 WNW 9 11 5 6 1020.4 1020.2 0.0
24/04:01am 10.0 7.6 8.8 92 0.6 WNW 11 13 6 7 1020.2 1020.0 0.0
24/04:00am 10.0 7.6 8.8 92 0.6 WNW 11 13 6 7 1020.2 1020.0 0.0
24/03:30am 9.9 8.3 8.7 92 0.6 NW 7 9 4 5 1019.8 1019.6 0.0
24/03:00am 9.4 7.3 8.2 92 0.6 NW 9 9 5 5 1019.8 1019.6 0.0
24/02:30am 9.1 7.0 8.2 94 0.4 NW 9 9 5 5 1019.9 1019.7 0.0
24/02:00am 9.6 7.9 8.4 92 0.6 N 7 9 4 5 1019.8 1019.6 0.0
24/01:30am 10.3 8.6 8.4 88 0.9 NW 7 9 4 5 1019.6 1019.4 0.0
24/01:00am 8.9 6.8 6.5 85 1.1 NNW 7 9 4 5 1019.5 1019.3 0.0
24/12:30am 11.1 10.0 8.5 84 1.3 W 4 7 2 4 1019.5 1019.3 0.0
24/12:00am 11.4 11.0 8.3 81 1.5 CALM 0 0 0 0 1019.5 1019.3 0.0
 
Date/Time
WST
Temp
°C
App
Temp
°C
Dew
Point
Rel
Hum
%
Delta-T
°C
Wind Press
QNH
hPa
Press
MSL
hPa
Rain
since 9 am
mm
Dir
 
Spd
km/h
Gust
km/h
Spd
kts
Gust
kts
23/11:30pm 11.8 11.6 9.0 83 1.4 CALM 0 0 0 0 1019.5 1019.3 0.0
23/11:00pm 11.2 10.8 8.4 83 1.4 CALM 0 0 0 0 1019.5 1019.3 0.0
23/10:30pm 12.6 12.0 8.9 78 1.9 SSW 2 7 1 4 1019.3 1019.1 0.0
23/10:00pm 11.5 11.3 8.9 84 1.3 CALM 0 0 0 0 1019.2 1019.0 0.0
23/09:30pm 12.6 12.6 9.8 83 1.4 CALM 0 0 0 0 1019.4 1019.2 0.0
23/09:00pm 13.9 14.0 10.1 78 2.0 CALM 0 0 0 0 1019.4 1019.2 0.0
23/08:30pm 13.4 13.7 10.9 85 1.3 CALM 0 0 0 0 1019.3 1019.1 0.0
23/08:00pm 13.3 13.4 11.4 88 1.0 SW 2 6 1 3 1019.1 1018.9 0.0
23/07:30pm 12.4 11.3 10.6 89 0.9 SW 7 9 4 5 1019.0 1018.8 0.0
23/07:00pm 12.2 11.1 9.9 86 1.2 SSW 6 6 3 3 1018.8 1018.6 0.0
23/06:30pm 13.7 12.3 10.9 83 1.5 SSW 9 9 5 5 1018.7 1018.5 0.0
23/06:00pm 13.7 12.3 10.9 83 1.5 SSW 9 11 5 6 1018.5 1018.3 0.0
23/05:30pm 13.8 12.3 10.6 81 1.7 SSW 9 11 5 6 1018.2 1018.0 0.0
23/05:00pm 15.3 14.1 11.5 78 2.1 S 9 9 5 5 1018.0 1017.8 0.0
23/04:30pm 17.2 16.1 12.1 72 2.8 SSE 9 11 5 6 1017.7 1017.5 0.0
23/04:00pm 18.7 17.4 11.3 62 4.1 SSW 9 13 5 7 1017.5 1017.3 0.0

Other Formats:

Comma delimited format used in spreadsheet applications
http://www.bom.gov.au/fwo/IDW60801/IDW60801.95638.axf

JavaScript Object Notation format (JSON) in row-major order
http://www.bom.gov.au/fwo/IDW60801/IDW60801.95638.json